Regional Weather Roundup
Issued by NWS

Home | Current Version | Previous Version | Graphics & Text | Print | Product List | Glossary On
Versions: 1 2 3 4 5 6 7 8 9 10 11 12 13 14 15 16 17 18 19 20 21 22 23 24 25 26 27
000
ASUS45 KBOU 280807
RWRCO

WEATHER ROUNDUP FOR COLORADO
NATIONAL WEATHER SERVICE DENVER/BOULDER CO
100 AM MST TUE FEB 28 2017

NOTE: "FAIR" INDICATES FEW OR NO CLOUDS BELOW 12000 FEET WITH NO
SIGNIFICANT WEATHER AND/OR OBSTRUCTIONS TO VISIBILITY.

COZ001>005-013-030-031-280900-
...NORTHWEST COLORADO...

CITY           SKY/WX    TMP DP  RH WIND       PRES   REMARKS
CRAIG          LGT SNOW  20  16  84 SE5       29.78F FOG     WCI  13
HAYDEN         MOCLDY    19  14  79 SW6       29.76F WCI  11
MEEKER         LGT SNOW  23  21  92 CALM      29.74F FOG
MOUNT WERNER   NOT AVBL
STEAMBOAT SPGS CLOUDY    18  17  93 S6        29.75S WCI  10
WALDEN         NOT AVBL
$$

COZ006>008-011-280900-
...WEST CENTRAL VALLEYS...

CITY           SKY/WX    TMP DP  RH WIND       PRES   REMARKS
GRAND JUNCTION CLOUDY    36  32  85 NW12      29.70S
MONTROSE       CLOUDY    35  30  82 S7        29.75F WCI  29
EAGLE          MIX PCPN  30  28  92 E6        29.70F WCI  24
RIFLE          LGT SNOW  31  23  72 NW13G22   29.73R WCI  21
DELTA          CLOUDY    38  33  82 NE8       29.70F
NUCLA          CLOUDY    34  30  86 SW5       29.75F WCI  30
$$

COZ017>023-064>068-280900-
...SOUTHWEST COLORADO...

CITY           SKY/WX    TMP DP  RH WIND       PRES   REMARKS
DURANGO        LGT SNOW  31  29  92 W5        29.76F VSB 1   WCI  26
CORTEZ         LGT RAIN  34  34 100 CALM      29.75F
PAGOSA SPRINGS LGT SNOW  32  32 100 S9        29.75F WCI  24
TELLURIDE      LGT SNOW  27  26  97 CALM      29.73F
WOLF CREEK PAS CLOUDY    18  18 100 S23G36    29.74F WCI   0
$$

COZ009-010-012-014-032>034-037-058>063-280900-
...CENTRAL COLORADO...

CITY           SKY/WX    TMP DP  RH WIND       PRES   REMARKS
ASPEN          LGT SNOW  26  25  96 S3        29.67F FOG
BUENA VISTA    CLOUDY    29  25  86 NW5       29.67F WCI  24
COPPER MTN     LGT SNOW  19  12  73 MISG      29.66S VSB 3/4
BERTHOUD PASS  LGT SNOW  10   0  61 W18G26    29.63S VSB 3/4 WCI  -8
COTTONWOOD PAS LGT SNOW  27  25  93 CALM      29.67F
GUNNISON       LGT SNOW  29  28  96 SW7       29.70F FOG     WCI  22
KREMMLING      FLURRIES  27  21  80 CALM      29.73S
LEADVILLE      LGT SNOW  19  16  88 N6        29.65F FOG     WCI  11
MONARCH PASS     N/A     18  14  86 SW35G43   29.74F WCI  -3
SALIDA         CLOUDY    35  23  62 S9G16     29.76F WCI  28
SUNLIGHT       NOT AVBL
WILKERSON PASS FOG       18  16  93 SW12G18   29.70R VSB 1   WCI   5
$$

COZ069>075-280900-
...SAN LUIS VALLEY/SANGRE DE CRISTO MOUNTAINS...

CITY           SKY/WX    TMP DP  RH WIND       PRES   REMARKS
ALAMOSA        CLOUDY    31  28  89 S8        29.73F WCI  23
LA VETA PASS   CLOUDY    27  23  86 S31G48    29.71F WCI  10
SAGUACHE       CLOUDY    21  19  93 N5        29.73F WCI  15
$$

COZ035-036-038>040-280900-
...NORTHERN COLORADO FRONT RANGE...

CITY           SKY/WX    TMP DP  RH WIND       PRES   REMARKS
DENVER INTL AP MOCLDY    22  18  85 S9        29.70R WCI  12
DMNS CITY PARK   N/A     29  19  65 SE12      29.71R WCI  20
AURORA         MOCLDY    24  18  80 SE10      29.71R WCI  13
FRONT RANGE AP FAIR      27  21  80 SE9       29.70S WCI  17
ERIE MUNI ARPT FAIR      30  21  69 S6        29.70R WCI  24
BOULDER MUN AP CLOUDY    32  23  69 SE6       29.69R WCI  26
CENTENNIAL     FAIR      26  19  74 SE5       29.71R WCI  20
BROOMFIELD     FAIR      30  23  74 SE3       29.69S
FORT COLLINS   FAIR      33  24  69 SW5       29.70R WCI  29
LONGMONT       NOT AVBL
$$

COZ041-046-047-076>085-087-088-280900-
...PIKES PEAK/PALMER DIVIDE AND SOUTHERN FOOTHILLS...

CITY           SKY/WX    TMP DP  RH WIND       PRES   REMARKS
COLO. SPRINGS  FAIR      40  15  36 S8        29.66R
A. F. ACADEMY  FAIR      41  15  34 W31G40    29.60F
SCHRIEVER AFB  FAIR      30  14  51 SE9       29.67R WCI  22
ELLICOTT       FAIR       1   1 100 SW9       29.67R WCI -14
FALCON         FAIR      34  12  40 NE7       29.69R WCI  28
FORT CARSON    FAIR      43  16  34 SW15      29.63S
LIMON          FAIR     N/A N/A N/A N10       29.70S
MONUMENT HILL  FAIR      21  18  86 E9        29.70R WCI  11
TRINIDAD       FAIR      46  22  38 SW15      29.68F
$$

COZ042>045-048>051-090-091-280900-
...NORTHEAST COLORADO...

CITY           SKY/WX    TMP DP  RH WIND       PRES   REMARKS
GREELEY ARPT   FAIR      33  16  49 NW13      29.70F WCI  24
AKRON          FAIR      25  21  85 NW9       29.72R WCI  15
BURLINGTON     FAIR      26  18  71 W5        29.72R WCI  20
WRAY           NOT AVBL
STERLING       FAIR      27  23  86 CALM      29.72R
HOLYOKE        FAIR      34  28  80 NW12G18   29.72R WCI  25
FORT MORGAN    FAIR      26  23  88 CALM      29.73R
$$

COZ086-089-092>099-280900-
...SOUTHEAST COLORADO...

CITY           SKY/WX    TMP DP  RH WIND       PRES   REMARKS
PUEBLO         FAIR      33  16  49 N8        29.64F WCI  26
LA JUNTA       FAIR      41  21  44 S13       29.66F
LAMAR          FAIR      38  13  35 SW3       29.66S
SPRINGFIELD      N/A     32  17  54 SW12      29.69F WCI  23
$$




USA.gov is the U.S. government's official web portal to all federal, state and local government web resources and services.